CW9114 Weather Reports


Display with metric or nautical units.
time (UTC)temp
F
wind
direction
speed
MPH
gust
MPH
rain 1hr
in
rain 24hr
in
rain mn
in
humidity
%
barometer
mb
20260507141521 42 281 4.0 9.0 0.00 0.00 0.00 60 1010.8
20260507140003 42 28 2.0 9.0 0.00 0.00 0.00 60 1010.8
20260507134507 42 274 2.0 7.0 0.00 0.00 0.00 62 1010.8
20260507133015 41 203 0.0 8.0 0.00 0.00 0.00 65 1010.7
20260507131526 40 257 1.0 4.0 0.00 0.00 0.00 66 1010.7
20260507130023 40 256 0.0 5.0 0.00 0.00 0.00 68 1010.7
20260507124509 39 291 1.0 6.0 0.00 0.00 0.00 68 1010.8
20260507123008 39 276 0.0 3.0 0.00 0.00 0.00 70 1010.8
20260507121517 38 283 0.0 2.0 0.00 0.00 0.00 71 1010.9
20260507120035 38 257 0.0 1.0 0.00 0.00 0.00 71 1010.8
20260507114526 37 360 0.0 2.0 0.00 0.00 0.00 71 1010.8
20260507113008 37 360 0.0 3.0 0.00 0.00 0.00 71 1010.7
20260507111511 37 360 0.0 3.0 0.00 0.00 0.00 72 1010.6
20260507110018 37 360 0.0 2.0 0.00 0.00 0.00 73 1010.8
20260507104521 37 360 0.0 2.0 0.00 0.00 0.00 71 1010.7
20260507103026 37 360 0.0 3.0 0.00 0.00 0.00 71 1010.5
20260507101507 37 360 0.0 2.0 0.00 0.00 0.00 71 1010.3
20260507100012 37 360 0.0 1.0 0.00 0.00 0.00 71 1010.4
20260507094517 37 360 0.0 3.0 0.00 0.00 0.00 70 1010.6
20260507093022 37 360 0.0 3.0 0.00 0.00 0.00 71 1010.6
20260507091530 37 360 0.0 3.0 0.00 0.00 0.00 71 1010.7
20260507090009 36 360 0.0 2.0 0.00 0.00 0.00 74 1010.8
20260507084514 36 360 0.0 1.0 0.00 0.00 0.00 72 1010.9
20260507083018 36 360 0.0 1.0 0.00 0.00 0.00 74 1011.0
20260507081538 37 360 0.0 0.0 0.00 0.00 0.00 73 1011.0
20260507080027 37 360 0.0 2.0 0.00 0.00 0.00 73 1011.0
20260507074523 37 360 0.0 4.0 0.00 0.00 0.00 70 1011.2
20260507073015 37 360 0.0 1.0 0.00 0.00 0.00 71 1011.3
20260507071518 37 360 0.0 1.0 0.00 0.00 0.00 68 1011.4
20260507070023 37 360 0.0 2.0 0.00 0.00 0.00 68 1011.4
20260507064529 37 360 0.0 2.0 0.00 0.00 0.00 68 1011.6
20260507063019 37 360 0.0 3.0 0.00 0.00 0.00 66 1011.7
20260507061516 37 360 0.0 1.0 0.00 0.00 0.00 67 1011.9
20260507060020 37 360 0.0 3.0 0.00 0.00 0.00 67 1012.0
20260507054503 37 360 0.0 2.0 0.00 0.00 0.00 67 1012.2
20260507053008 37 360 0.0 3.0 0.00 0.00 0.00 66 1012.2
20260507051512 37 360 0.0 2.0 0.00 0.00 0.00 65 1012.3
20260507050025 37 360 0.0 2.0 0.00 0.00 0.00 66 1012.3
20260507044522 37 360 0.0 2.0 0.00 0.00 0.00 65 1012.3
20260507043024 37 360 0.0 1.0 0.00 0.00 0.00 65 1012.4
20260507041506 37 360 0.0 1.0 0.00 0.00 0.00 65 1012.4
20260507040016 37 360 0.0 2.0 0.00 0.00 0.00 66 1012.5
20260507034518 37 360 0.0 7.0 0.00 0.00 0.00 66 1012.7
20260507033025 37 360 0.0 2.0 0.00 0.00 0.00 67 1012.7
20260507031527 36 360 0.0 2.0 0.00 0.00 0.00 70 1012.7
20260507030011 36 360 0.0 0.0 0.00 0.00 0.00 71 1012.9
20260507024516 37 360 0.0 1.0 0.00 0.00 0.00 67 1013.0
20260507023020 38 360 0.0 1.0 0.00 0.00 0.00 63 1012.9
20260507021524 38 360 0.0 2.0 0.00 0.00 0.00 63 1012.9
20260507020029 39 360 1.0 5.0 0.00 0.00 0.00 62 1012.8
20260507014510 39 360 0.0 4.0 0.00 0.00 0.00 61 1012.8
20260507013018 39 347 2.0 7.0 0.00 0.00 0.00 60 1012.7
20260507011522 40 340 1.0 6.0 0.00 0.00 0.00 60 1012.8
20260507010032 40 317 0.0 5.0 0.00 0.00 0.00 59 1012.7
20260507004528 40 328 0.0 6.0 0.00 0.00 0.00 58 1012.7
20260507003010 41 360 1.0 6.0 0.00 0.00 0.00 57 1012.5
20260507001525 41 285 0.0 4.0 0.00 0.00 0.00 57 1012.4
20260507000032 41 360 1.0 5.0 0.00 0.00 0.00 55 1012.4
20260506234528 41 272 3.0 9.0 0.00 0.00 0.00 55 1012.5
20260506233027 42 264 3.0 9.0 0.00 0.00 0.00 53 1012.4
20260506231513 42 304 3.0 8.0 0.00 0.00 0.00 53 1012.3
20260506230019 42 335 1.0 7.0 0.00 0.00 0.00 52 1012.4
20260506224522 43 274 3.0 8.0 0.00 0.00 0.00 51 1012.2
20260506223028 43 238 1.0 7.0 0.00 0.00 0.00 51 1012.2
20260506221528 43 305 1.0 7.0 0.00 0.00 0.00 50 1012.2
20260506220022 43 344 2.0 9.0 0.00 0.00 0.00 49 1012.0
20260506214521 44 298 3.0 7.0 0.00 0.00 0.00 50 1012.1
20260506213026 43 264 3.0 9.0 0.00 0.00 0.00 49 1012.0
20260506211527 43 308 1.0 9.0 0.00 0.00 0.00 48 1011.9
20260506210031 44 291 2.0 9.0 0.00 0.00 0.00 48 1012.0
20260506204523 44 342 0.0 9.0 0.00 0.00 0.00 48 1011.9
20260506203022 44 281 4.0 11.0 0.00 0.00 0.00 48 1012.0
20260506201527 43 230 4.0 11.0 0.00 0.00 0.00 51 1012.0
20260506200027 43 309 4.0 7.0 0.00 0.00 0.00 51 1012.1
20260506194528 43 338 2.0 7.0 0.00 0.00 0.00 51 1012.1
20260506193018 43 350 3.0 10.0 0.00 0.00 0.00 52 1012.0
20260506191525 42 257 4.0 10.0 0.00 0.00 0.00 52 1012.2
20260506190028 43 285 5.0 12.0 0.00 0.00 0.00 51 1012.0
20260506184529 43 304 4.0 9.0 0.00 0.00 0.00 51 1012.0
20260506183001 43 250 5.0 11.0 0.00 0.00 0.00 53 1012.0
20260506181506 43 276 5.0 14.0 0.00 0.00 0.00 53 1012.2
20260506180006 42 259 2.0 8.0 0.00 0.00 0.00 53 1012.2
20260506174506 43 354 5.0 12.0 0.00 0.00 0.00 53 1012.2
20260506173005 42 243 0.0 7.0 0.00 0.00 0.00 53 1012.2
20260506171509 41 295 2.0 9.0 0.00 0.00 0.00 54 1012.3
20260506170007 42 303 3.0 7.0 0.00 0.00 0.00 53 1012.3
20260506164506 42 328 3.0 6.0 0.00 0.00 0.00 55 1012.3
20260506163009 41 294 2.0 8.0 0.00 0.00 0.00 53 1012.4
20260506161506 42 312 3.0 7.0 0.00 0.00 0.00 51 1012.2
20260506160016 41 347 3.0 8.0 0.00 0.00 0.00 52 1012.3
20260506154509 41 205 3.0 9.0 0.00 0.00 0.00 50 1012.2
20260506153003 41 292 4.0 9.0 0.00 0.00 0.00 49 1012.1
20260506151506 40 335 2.0 12.0 0.00 0.00 0.00 49 1012.0
20260506150006 41 298 4.0 10.0 0.00 0.00 0.00 48 1011.9
20260506144508 40 357 2.0 11.0 0.00 0.00 0.00 50 1011.9
20260506143008 40 295 2.0 8.0 0.00 0.00 0.00 51 1012.0